Regional Weather Roundup
Issued by NWS

Home | Current Version | Previous Version | Graphics & Text | Print | Product List | Glossary On
Versions: 1 2 3 4 5 6 7 8 9 10 11 12 13 14 15 16 17 18 19 20 21 22 23 24 25 26 27 28 29 30 31 32 33 34 35 36 37 38 39 40 41 42 43 44 45 46 47 48 49 50
000
ASUS43 KOAX 311602
RWRNE

WEATHER ROUNDUP FOR NEBRASKA
NATIONAL WEATHER SERVICE OMAHA NE
1100 AM CDT THU JUL 31 2014

NOTES: SATELLITE DATA IS BEING USED TO AUGMENT CLOUD COVER ABOVE
       12000 FEET.
       "FAIR" INDICATES FEW OR NO CLOUDS BELOW 12,000 FEET WITH NO
       SIGNIFICANT WEATHER AND/OR OBSTRUCTIONS TO VISIBILITY.

  * THESE STATIONS DO NOT REPORT WEATHER SUCH AS RAIN...SNOW OR FOG.

NEZ001>004-019>022-054>056-311700-
NEBRASKA PANHANDLE

CITY           SKY/WX    TMP DP  RH WIND       PRES   REMARKS
SCOTTSBLUFF    SUNNY     74  56  53 W6        30.23S
ALLIANCE       SUNNY     77  48  35 N8        30.22R
CHADRON        SUNNY     77  52  41 CALM      30.20R
KIMBALL        SUNNY     72  46  39 CALM      30.26S
SIDNEY         SUNNY     77  51  40 VRB6      30.25S
$$

NEZ057>060-069>072-079>082-311700-
SOUTHWEST NEBRASKA

CITY           SKY/WX    TMP DP  RH WIND       PRES   REMARKS
NORTH PLATTE   MOSUNNY   76  62  62 NW7       30.15R
IMPERIAL       SUNNY     76  58  53 W8        30.19F
LEXINGTON      SUNNY     81  59  47 W9        30.12S
MCCOOK         SUNNY     77  60  55 SW8       30.16F
OGALLALA       SUNNY     74  60  61 SW6       30.18S
$$

NEZ005>010-023>029-035>040-094-311700-
NORTH CENTRAL NEBRASKA

CITY           SKY/WX    TMP DP  RH WIND       PRES   REMARKS
VALENTINE      SUNNY     80  55  42 N15       30.11S
AINSWORTH      SUNNY     76  55  47 NW9       30.10S
BROKEN BOW     SUNNY     78  62  57 W8        30.10S
O`NEILL        SUNNY     75  60  59 CALM      30.07R
ORD            MOSUNNY   77  60  55 W6        30.06F
$$

NEZ041-046>049-061>064-073>077-083>087-311700-
SOUTH CENTRAL NEBRASKA

CITY           SKY/WX    TMP DP  RH WIND       PRES   REMARKS
GRAND ISLAND   MOSUNNY   80  59  48 S12       30.10F
AURORA         SUNNY     78  60  53 SW9       30.11S
HASTINGS       MOSUNNY   77  56  48 SW9       30.12S
HEBRON         MOSUNNY   77  49  36 SW7       30.13S
HOLDREGE       MOSUNNY   78  58  50 SW6       30.13S
KEARNEY *      CLOUDY    75  61  60 S12       30.12S
YORK           MOSUNNY   75  59  57 S14       30.11S
$$

NEZ011>018-030>034-042>045-311700-
NORTHEAST NEBRASKA

CITY           SKY/WX    TMP DP  RH WIND       PRES   REMARKS
NORFOLK        CLOUDY    74  59  59 SE9       30.09S
ALBION         MOSUNNY   75  58  54 SW8       30.07F
BLAIR          MOSUNNY   75  55  49 S8        30.10F
COLUMBUS *     SUNNY     57  57 100 S9        30.09S
FREMONT        MOSUNNY   75  58  55 S5        30.11S
TEKAMAH        MOSUNNY   77  58  51 S7        30.09F
WAYNE          MOSUNNY   70  61  74 CALM      30.10S
$$

NEZ050>053-065>068-078-088>093-311700-
SOUTHEAST NEBRASKA

CITY           SKY/WX    TMP DP  RH WIND       PRES   REMARKS
LINCOLN        SUNNY     81  53  37 S8        30.11F
OMAHA EPPLEY   MOSUNNY   78  54  43 S6        30.11S
BEATRICE       SUNNY     77  55  46 S7        30.12S
FALLS CITY     SUNNY     77  56  48 CALM      30.12S
NEBRASKA CITY  SUNNY     76  56  48 SW7       30.13R
PLATTSMOUTH    SUNNY     77  56  47 SW3       30.12S
$$

NEZ044-045-051>053-067-311700-
OMAHA AREA

CITY           SKY/WX    TMP DP  RH WIND       PRES   REMARKS
OMAHA EPPLEY   MOSUNNY   78  54  43 S6        30.11S
BLAIR          MOSUNNY   75  55  49 S8        30.10F
FREMONT        MOSUNNY   75  58  55 S5        30.11S
MILLARD        SUNNY     77  56  48 CALM      30.11S
OFFUTT AFB     SUNNY     78  60  55 CALM      30.11S
PLATTSMOUTH    SUNNY     77  56  47 SW3       30.12S
WAHOO          FAIR      80  56  44 SW7       30.10S
$$


USA.gov is the U.S. government's official web portal to all federal, state and local government web resources and services.